Date,TemperatureHighF,TemperatureAvgF,TemperatureLowF,DewpointHighF,DewpointAvgF,DewpointLowF,HumidityHigh,HumidityAvg,HumidityLow,PressureMaxIn,PressureMinIn,WindSpeedMaxMPH,WindSpeedAvgMPH,GustSpeedMaxMPH,PrecipitationSumIn
2013-1-1,37.8,34.5,24.7,30.2,24.0,12.7,75,65,54,29.99,29.81,10,4,19,0.00
2013-1-2,30.0,25.5,19.5,19.8,15.3,10.8,75,65,58,30.15,29.97,10,3,17,0.00
2013-1-3,31.0,24.9,13.0,20.0,15.2,5.6,75,67,53,30.18,30.04,5,2,10,0.00
2013-1-4,37.0,32.8,29.6,26.2,23.2,20.0,75,68,58,30.05,29.91,9,4,15,0.00
2013-1-5,41.5,34.3,27.2,26.2,24.0,20.5,86,67,53,30.25,29.97,12,4,23,0.00
2013-1-6,44.2,35.8,29.8,32.5,29.0,25.3,89,77,58,30.21,29.94,6,2,11,0.00
2013-1-7,44.0,35.7,27.0,31.7,26.7,22.3,87,71,45,30.38,30.02,8,2,15,0.00
2013-1-8,46.8,35.0,24.2,32.9,27.4,20.3,90,75,57,30.41,30.32,6,2,11,0.00
2013-1-9,44.7,37.9,28.0,37.8,32.0,24.0,87,79,69,30.37,30.10,5,1,9,0.00
2013-1-10,46.6,40.3,31.1,33.6,27.1,24.3,82,60,42,30.53,30.18,9,3,15,0.00
2013-1-11,43.6,37.3,31.0,42.5,32.4,26.0,96,83,65,30.53,30.08,3,0,5,0.27
2013-1-12,46.7,44.3,41.9,45.1,43.1,40.6,97,96,94,30.16,30.07,2,0,5,0.03
2013-1-13,47.1,44.6,42.1,46.0,43.8,41.3,99,97,95,30.15,29.99,3,0,5,0.00
2013-1-14,56.1,47.9,36.3,51.7,43.7,31.1,99,86,65,30.28,29.88,9,2,16,0.07
2013-1-15,38.3,36.1,33.4,32.7,29.6,26.9,94,78,66,30.33,30.19,5,1,8,0.09
2013-1-16,36.9,33.8,31.9,33.5,31.8,29.6,96,92,75,30.23,29.78,5,1,9,0.53
2013-1-17,42.6,36.8,31.1,33.4,29.7,21.4,94,76,59,30.08,29.89,8,2,18,0.00
2013-1-18,31.1,24.7,18.1,21.8,12.2,7.0,85,60,42,30.47,30.01,9,3,14,0.00
2013-1-19,45.6,37.8,25.1,31.5,25.5,14.4,74,61,52,30.38,29.90,9,4,17,0.00
2013-1-20,50.5,40.6,27.6,32.4,25.5,12.0,76,56,32,30.00,29.65,11,6,23,0.00
2013-1-21,29.7,26.3,20.2,21.7,16.2,10.4,83,66,51,30.07,29.80,8,2,18,0.00
2013-1-22,24.9,18.6,11.6,19.5,3.6,-6.0,84,52,38,30.17,29.80,11,7,22,0.00
2013-1-23,19.0,12.9,7.4,3.0,-0.6,-4.3,79,55,42,30.23,30.14,10,4,20,0.00
2013-1-24,23.1,13.5,5.2,4.1,1.8,-0.4,89,62,38,30.36,30.13,12,4,25,0.00
2013-1-25,23.7,17.4,10.3,17.8,7.7,1.4,87,66,45,30.39,30.04,8,2,15,0.03
2013-1-26,26.8,18.9,12.0,12.7,9.5,6.9,85,68,48,30.33,30.03,8,3,13,0.00
2013-1-27,33.7,24.6,15.1,16.7,11.9,8.1,81,60,38,30.50,30.33,7,2,13,0.00
2013-1-28,34.3,29.4,21.5,33.0,25.5,14.9,95,85,66,30.47,29.99,4,1,8,0.19
2013-1-29,42.2,37.4,34.2,40.7,35.3,32.8,96,92,88,30.14,29.98,3,1,5,0.06
2013-1-30,52.9,45.9,38.4,52.9,45.3,36.6,100,98,93,30.09,29.36,7,1,10,0.06
2013-1-31,56.4,43.5,28.0,56.0,32.5,12.9,100,67,39,29.73,29.02,14,8,26,0.83
2013-2-1,31.3,26.7,22.2,16.9,11.9,5.3,69,54,38,30.19,29.73,11,6,27,0.00
2013-2-2,28.7,23.3,17.7,21.1,12.7,7.0,88,65,41,30.28,30.04,9,4,15,0.02
2013-2-3,32.1,25.8,18.7,21.7,18.3,13.7,88,74,55,30.04,29.77,5,1,9,0.01
2013-2-4,30.5,26.3,21.4,21.3,13.7,9.9,83,59,43,29.95,29.78,11,5,21,0.00
2013-2-5,30.4,28.7,26.4,26.4,22.8,16.5,86,78,63,29.97,29.89,2,0,4,0.00
2013-2-6,38.3,32.3,27.9,27.5,21.9,9.0,92,67,43,30.33,29.90,9,3,17,0.00
2013-2-7,32.4,27.3,21.7,22.6,13.6,8.4,75,57,41,30.50,30.31,4,1,8,0.00
2013-2-8,32.1,30.4,25.8,30.9,27.7,22.3,96,90,74,30.34,29.60,9,4,21,0.93
2013-2-9,31.8,26.2,18.8,24.5,18.1,7.4,96,73,48,30.30,29.71,12,6,24,0.46
2013-2-10,41.6,24.6,14.2,19.6,10.3,3.2,78,56,27,30.46,30.30,5,2,11,0.00
2013-2-11,41.9,35.3,26.9,41.4,32.9,19.0,100,91,71,30.32,29.65,5,0,9,0.30
2013-2-12,43.4,38.2,32.7,38.1,29.5,25.0,100,72,55,29.95,29.68,10,4,22,0.01
2013-2-13,45.4,35.0,22.9,32.5,26.4,20.9,96,72,47,29.93,29.68,5,1,12,0.05
2013-2-14,45.2,36.6,28.6,32.7,29.1,25.5,93,76,52,29.98,29.70,5,1,8,0.01
2013-2-15,52.7,39.7,29.4,36.9,31.7,26.0,88,75,45,30.00,29.90,6,2,11,0.00
2013-2-16,39.2,34.0,28.9,34.0,25.8,15.6,93,73,54,29.95,29.70,6,3,14,0.03
2013-2-17,31.1,24.6,15.7,16.0,7.3,1.9,58,48,33,29.93,29.61,16,8,29,0.00
2013-2-18,33.7,24.2,15.7,18.0,9.5,4.0,70,54,39,30.20,29.93,14,6,26,0.00
2013-2-19,45.1,35.4,23.1,41.1,29.6,17.3,96,80,59,30.19,29.65,11,2,18,0.25
2013-2-20,36.8,30.0,23.8,27.9,17.3,11.2,71,59,46,29.93,29.67,13,8,26,0.00
2013-2-21,33.1,26.8,23.2,16.8,14.8,12.6,71,60,50,30.27,29.93,14,7,27,0.00
2013-2-22,38.0,31.0,23.3,29.8,22.8,15.4,81,72,56,30.40,30.25,7,2,18,0.00
2013-2-23,39.0,36.2,34.4,38.2,34.0,29.6,97,92,79,30.27,29.79,5,2,9,0.02
2013-2-24,44.2,37.5,32.3,38.4,33.5,26.0,96,86,63,29.93,29.72,9,3,17,0.00
2013-2-25,44.7,37.3,30.3,31.1,27.6,24.0,80,68,52,30.23,29.93,6,2,13,0.00
2013-2-26,39.9,35.4,30.9,33.2,30.1,26.6,95,81,64,30.30,29.92,7,2,14,0.13
2013-2-27,44.2,40.7,34.2,43.1,39.4,32.9,98,95,87,29.93,29.48,11,5,19,0.84
2013-2-28,47.7,41.3,36.4,40.1,35.6,32.4,94,81,63,29.61,29.53,5,1,10,0.02
2013-3-1,45.4,38.7,33.4,34.8,31.2,27.1,92,75,58,29.75,29.58,7,2,14,0.00
2013-3-2,38.7,35.3,30.8,28.7,26.6,24.9,90,71,62,29.75,29.67,7,3,13,0.00
2013-3-3,39.6,32.3,28.4,27.0,22.7,19.3,86,68,51,29.72,29.63,8,4,16,0.00
2013-3-4,40.1,32.4,27.3,25.0,21.4,17.9,76,64,52,29.87,29.71,12,7,25,0.00
2013-3-5,47.8,38.2,30.1,31.0,26.6,21.4,75,64,47,30.01,29.86,8,3,15,0.00
2013-3-6,40.5,38.4,36.2,37.7,32.0,28.9,92,78,66,29.98,29.87,9,4,29,0.02
2013-3-7,38.0,34.6,32.2,32.5,30.4,27.2,96,85,72,30.05,29.91,11,6,22,0.28
2013-3-8,39.4,34.3,29.8,33.1,29.8,25.9,96,85,63,30.17,29.98,8,5,23,0.63
2013-3-9,54.4,40.8,31.8,27.8,24.8,20.1,78,56,27,30.31,30.16,8,3,16,0.00
2013-3-10,49.6,37.8,26.9,36.8,30.7,22.9,88,76,55,30.38,30.29,4,1,7,0.00
2013-3-11,52.1,44.4,37.4,46.2,40.4,34.1,94,86,71,30.32,30.08,5,1,9,0.00
2013-3-12,53.7,49.6,42.7,53.3,48.0,38.6,99,94,81,30.09,29.66,10,4,18,1.28
2013-3-13,50.4,41.5,33.9,39.6,32.2,23.9,92,71,41,29.86,29.76,9,3,17,0.00
2013-3-14,37.4,32.5,27.0,29.1,15.4,8.2,78,50,32,29.92,29.82,15,9,32,0.00
2013-3-15,41.7,35.1,28.4,31.1,20.4,9.0,70,55,40,29.94,29.70,11,5,20,0.00
2013-3-16,37.7,34.1,30.8,30.0,24.9,16.4,87,70,49,29.90,29.76,8,2,14,0.03
2013-3-17,37.8,33.0,28.7,29.4,21.3,10.2,91,64,38,30.29,29.90,8,2,17,0.00
2013-3-18,33.4,29.1,23.4,31.0,16.7,7.9,97,62,43,30.41,30.03,6,3,11,0.39
2013-3-19,40.2,35.1,31.8,36.1,33.0,26.3,97,92,72,30.03,29.67,8,3,17,0.26
2013-3-20,42.3,35.8,29.7,26.7,22.1,19.3,75,58,41,29.85,29.77,11,4,22,0.00
2013-3-21,37.6,34.3,30.3,28.3,20.7,14.7,81,58,41,29.83,29.61,7,3,15,0.00
2013-3-22,40.2,33.4,26.6,24.7,19.9,13.3,74,58,47,29.85,29.70,10,5,20,0.00
2013-3-23,43.8,36.9,32.1,24.9,21.2,17.0,67,53,38,29.90,29.78,13,8,27,0.00
2013-3-24,44.7,37.0,28.6,25.5,21.4,16.1,79,54,40,29.93,29.70,9,3,14,0.00
2013-3-25,42.3,38.9,36.1,35.4,29.7,23.9,90,70,54,29.70,29.44,6,2,16,0.00
2013-3-26,50.7,40.9,30.9,33.4,28.6,23.8,82,63,43,29.84,29.56,9,2,16,0.00
2013-3-27,50.7,39.8,27.9,30.2,25.7,21.2,86,59,32,29.94,29.84,11,4,25,0.00
2013-3-28,48.6,42.4,36.0,35.3,31.6,29.1,77,66,55,30.08,29.93,7,4,16,0.00
2013-3-29,54.2,44.9,35.1,33.3,30.6,28.4,79,58,40,30.11,30.03,10,4,16,0.00
2013-3-30,56.2,43.8,31.9,33.4,25.8,17.8,85,54,23,30.14,30.04,9,2,16,0.00
2013-3-31,53.8,43.3,32.1,42.1,33.5,26.1,94,70,42,30.12,29.65,7,2,13,0.75
2013-4-1,61.2,45.9,35.2,46.2,37.3,13.4,99,75,37,29.87,29.58,14,4,22,0.05
2013-4-2,41.6,35.6,29.5,19.7,15.9,11.1,65,45,32,30.05,29.87,13,6,24,0.00
2013-4-3,45.7,36.3,29.8,19.9,15.2,12.3,61,42,30,30.27,30.05,13,8,26,0.00
2013-4-4,53.4,38.7,25.1,31.9,22.5,14.7,78,54,30,30.37,30.06,7,3,16,0.00
2013-4-5,61.4,47.2,36.6,32.2,25.6,16.6,79,46,23,30.06,29.69,11,4,19,0.00
2013-4-6,51.3,40.3,32.7,27.5,16.9,7.4,70,42,17,30.30,29.97,9,4,17,0.00
2013-4-7,52.2,43.0,30.1,42.8,33.9,25.5,89,72,49,30.30,29.99,13,4,24,0.00
2013-4-8,72.0,54.2,37.0,45.9,42.0,36.2,100,68,32,30.07,29.97,7,2,14,0.00
2013-4-9,76.6,62.8,48.5,50.6,43.4,36.6,89,55,24,29.99,29.89,9,1,22,0.00
2013-4-10,69.9,59.4,51.2,53.8,48.7,39.0,95,69,46,29.97,29.79,0,0,0,0.36
2013-4-11,62.1,53.8,45.0,56.1,48.9,38.6,98,84,62,30.05,29.77,5,2,12,0.01
2013-4-12,45.1,41.5,38.5,40.5,37.6,32.0,98,87,63,30.04,29.71,11,4,23,1.73
2013-4-13,56.4,45.9,37.1,41.0,37.6,33.7,98,75,49,29.95,29.73,7,2,14,0.20
2013-4-14,54.6,47.9,40.1,41.5,33.4,27.8,89,59,38,30.21,29.94,13,4,24,0.00
2013-4-15,56.1,46.2,34.8,35.8,31.3,26.4,87,58,39,30.37,30.21,7,2,13,0.00
2013-4-16,62.4,51.9,39.9,53.1,46.0,34.5,92,80,67,30.36,30.10,8,3,14,0.00
2013-4-17,67.0,57.3,46.0,55.5,43.1,35.3,95,63,33,30.27,30.09,6,2,13,0.07
2013-4-18,58.7,51.1,42.2,50.1,42.7,37.7,96,74,47,30.34,30.10,6,2,10,0.00
2013-4-19,71.3,60.3,52.1,63.5,57.8,50.1,100,92,75,30.10,29.63,8,2,14,0.07
2013-4-20,60.0,51.4,43.2,59.7,38.4,24.8,99,65,34,30.28,29.62,11,4,23,0.25
2013-4-21,51.4,41.7,30.2,32.2,22.2,17.5,80,48,27,30.61,30.28,10,4,17,0.00
2013-4-22,52.5,43.1,31.9,37.2,31.3,22.5,96,66,37,30.67,30.49,11,4,19,0.00
2013-4-23,50.8,42.8,36.4,42.3,37.2,31.3,93,80,72,30.49,30.09,6,2,11,0.00
2013-4-24,68.9,51.7,37.8,51.5,44.8,36.7,97,79,50,30.10,29.82,7,2,11,0.00
2013-4-25,63.2,52.7,41.1,50.6,34.4,20.5,97,55,23,30.25,29.85,12,4,22,0.00
2013-4-26,64.3,50.7,34.6,38.1,33.7,25.0,95,57,26,30.40,30.25,7,2,12,0.00
2013-4-27,67.6,54.3,41.4,37.2,30.8,20.9,70,44,18,30.41,30.25,8,2,13,0.00
2013-4-28,65.8,52.4,36.7,44.8,36.5,27.8,96,59,29,30.30,30.19,10,2,17,0.00
2013-4-29,56.0,52.6,49.3,48.2,43.4,35.5,87,71,54,30.23,30.18,7,2,12,0.01
2013-4-30,66.2,56.1,43.0,47.1,38.9,28.1,79,56,28,30.32,30.20,5,2,8,0.00
2013-5-1,66.4,52.4,34.7,46.6,39.1,29.3,94,65,30,30.47,30.32,5,1,9,0.00
2013-5-2,73.2,56.2,37.8,49.1,42.2,37.2,100,65,30,30.46,30.30,4,1,8,0.00
2013-5-3,63.4,55.2,45.2,45.2,39.8,32.8,87,58,38,30.44,30.33,6,3,14,0.00
2013-5-4,68.8,53.5,40.0,48.1,43.7,39.0,100,73,43,30.36,30.21,5,1,8,0.00
2013-5-5,60.9,49.1,40.9,45.3,41.7,38.1,97,78,50,30.29,30.20,3,1,9,0.00
2013-5-6,68.7,53.7,38.8,54.4,47.5,37.8,99,81,58,30.26,30.14,4,1,7,0.00
2013-5-7,72.7,58.9,43.3,60.1,52.4,41.8,100,81,60,30.16,30.07,4,1,9,0.00
2013-5-8,62.1,58.6,52.4,61.9,57.4,-99.9,100,97,92,30.10,29.97,3,-4,7,0.51
2013-5-9,63.6,56.9,51.6,59.8,56.0,51.1,100,97,83,30.00,29.87,2,0,9,0.27
2013-5-10,78.0,62.6,47.0,61.7,54.7,46.7,100,79,45,29.98,29.87,5,1,10,0.01
2013-5-11,64.2,60.8,57.2,62.9,60.1,55.4,100,98,91,29.88,29.67,3,0,7,0.42
2013-5-12,68.0,59.1,48.7,59.7,46.7,29.8,100,68,31,29.90,29.62,9,3,24,0.03
2013-5-13,54.3,46.6,37.1,36.1,32.2,27.1,91,59,38,30.08,29.89,8,3,18,0.00
2013-5-14,59.1,46.7,33.3,36.1,32.2,24.8,97,63,29,30.10,30.00,8,2,20,0.00
2013-5-15,63.6,51.5,35.4,53.3,45.3,33.3,95,80,58,30.06,29.67,10,2,17,0.03
2013-5-16,80.2,62.5,47.0,58.4,51.0,44.8,100,71,32,29.81,29.69,5,1,9,0.01
2013-5-17,70.7,59.6,48.6,51.0,44.3,37.9,94,59,37,30.19,29.80,6,2,17,0.00
2013-5-18,69.5,54.8,42.8,55.9,49.5,41.7,99,84,48,30.30,30.19,3,0,7,0.06
2013-5-19,57.0,55.2,52.7,56.7,54.9,51.9,100,99,97,30.32,30.16,2,0,6,0.31
2013-5-20,77.6,65.0,55.7,68.5,62.0,55.7,100,91,70,30.16,29.94,3,1,9,0.01
2013-5-21,87.7,70.9,56.4,72.2,65.4,56.1,100,85,56,29.96,29.80,3,1,7,0.00
2013-5-22,77.1,66.0,56.9,70.1,63.4,56.1,99,92,75,29.91,29.82,3,0,7,0.00
2013-5-23,74.2,65.7,63.0,71.1,65.2,62.6,100,98,87,29.87,29.74,9,0,9,3.13
2013-5-24,63.2,55.4,44.9,63.1,54.6,42.1,100,97,90,29.90,29.65,7,2,17,0.14
2013-5-25,49.7,45.7,42.5,47.0,43.4,41.1,98,92,81,29.96,29.84,8,4,19,0.71
2013-5-26,63.1,52.6,43.0,45.1,41.4,38.3,93,68,43,30.18,29.90,12,5,27,0.00
2013-5-27,73.5,56.9,38.7,50.9,42.6,36.3,99,66,30,30.21,30.09,7,1,13,0.00
2013-5-28,66.4,54.6,45.5,56.8,51.4,45.0,100,90,52,30.21,30.12,1,0,4,0.31
2013-5-29,80.4,62.9,56.2,71.1,61.4,56.2,100,95,70,30.13,29.98,3,0,7,0.02
2013-5-30,90.5,75.0,60.1,72.5,65.7,60.1,100,77,45,30.10,30.02,4,1,11,0.00
2013-5-31,92.0,75.2,61.5,72.7,66.5,61.2,100,78,41,30.10,29.96,3,0,9,0.00
2013-6-1,89.0,74.0,60.8,73.7,67.3,60.5,100,82,54,29.99,29.87,3,1,9,0.00
2013-6-2,86.1,73.9,63.6,73.8,68.5,63.1,100,85,62,29.89,29.73,4,1,8,0.09
2013-6-3,77.8,69.3,63.7,69.0,65.4,53.6,100,88,63,29.85,29.78,4,0,9,1.74
2013-6-4,74.5,61.8,50.7,54.2,45.1,38.0,89,58,28,30.09,29.85,8,3,13,0.00
2013-6-5,73.2,61.2,48.8,49.4,46.0,41.3,90,60,33,30.19,30.09,7,2,16,0.00
2013-6-6,68.5,59.2,48.5,58.3,52.9,46.1,99,82,47,30.14,30.02,8,2,15,0.18
2013-6-7,59.9,58.4,56.6,59.8,58.4,56.6,100,100,99,30.02,29.64,3,0,10,2.86
2013-6-8,76.1,64.0,54.4,66.3,59.8,54.1,100,87,66,30.03,29.58,6,2,14,0.71
2013-6-9,78.8,66.3,53.5,64.6,58.5,53.1,100,79,49,30.15,30.03,7,1,13,0.00
2013-6-10,69.1,62.1,58.7,66.5,61.4,58.0,100,98,90,30.15,29.84,2,1,12,0.92
2013-6-11,79.9,68.2,59.2,70.1,63.8,56.7,100,87,63,29.84,29.58,8,2,18,0.50
2013-6-12,73.3,66.0,56.0,60.0,55.8,53.1,95,71,52,29.83,29.66,10,4,20,0.00
2013-6-13,59.8,56.8,52.7,59.5,56.3,52.2,100,98,95,29.82,29.49,4,1,13,0.93
2013-6-14,72.2,58.9,51.0,62.5,55.0,50.6,99,88,63,29.86,29.52,5,2,14,0.48
2013-6-15,77.8,65.3,53.9,59.1,55.5,51.6,100,75,43,29.99,29.86,7,1,12,0.00
2013-6-16,79.2,66.6,52.3,65.9,59.5,51.8,100,80,50,29.98,29.74,5,1,13,0.00
2013-6-17,83.7,70.2,58.3,73.3,64.4,57.8,100,83,54,29.89,29.80,10,1,18,0.10
2013-6-18,81.8,67.3,58.1,72.3,64.6,57.8,100,92,60,29.89,29.80,3,0,9,0.23
2013-6-19,74.6,62.1,55.4,61.7,55.7,46.1,99,83,38,30.15,29.87,4,1,9,0.00
2013-6-20,79.9,64.3,50.5,62.2,56.1,50.0,100,78,41,30.25,30.15,3,0,8,0.00
2013-6-21,83.5,67.6,53.1,68.3,58.6,52.5,100,75,49,30.28,30.20,4,1,6,0.00
2013-6-22,84.1,68.1,54.4,66.5,59.8,53.8,100,77,50,30.25,30.11,3,1,9,0.00
2013-6-23,88.7,72.4,58.0,73.8,66.1,57.2,100,82,56,30.17,30.03,4,1,7,0.00
2013-6-24,92.5,77.7,66.0,74.7,69.8,65.4,100,80,45,30.04,29.89,8,1,9,0.04
2013-6-25,90.1,76.8,64.5,76.5,69.1,64.5,100,79,52,29.97,29.76,4,1,10,0.00
2013-6-26,81.1,76.0,70.0,72.7,69.4,67.4,97,80,67,29.81,29.73,6,1,13,0.00
2013-6-27,83.6,73.7,66.7,74.7,70.4,66.4,100,90,72,29.80,29.53,2,0,6,1.25
2013-6-28,84.8,75.5,69.3,74.7,70.9,66.2,100,86,60,29.54,29.43,5,1,8,0.04
2013-6-29,83.7,73.7,65.4,71.8,68.6,64.8,100,85,61,29.68,29.46,3,1,10,0.00
2013-6-30,74.2,69.1,65.1,72.4,68.3,64.8,100,97,94,29.90,29.68,1,0,2,0.01
2013-7-1,74.7,71.8,70.6,73.2,71.5,70.4,100,99,95,30.03,29.88,4,0,4,1.99
2013-7-2,81.5,73.9,70.3,76.6,72.6,70.3,100,96,83,30.15,30.03,2,0,4,0.02
2013-7-3,83.3,75.2,69.3,77.1,72.6,68.8,100,92,75,30.22,30.14,3,0,7,0.03
2013-7-4,88.3,78.9,72.2,78.4,74.4,71.8,100,87,66,30.22,30.11,3,1,6,0.00
2013-7-5,91.5,79.8,72.2,78.7,74.0,71.3,98,84,56,30.18,30.05,5,1,10,0.00
2013-7-6,90.0,80.3,73.7,78.3,74.0,71.8,96,82,60,30.10,29.99,4,1,9,0.00
2013-7-7,94.0,81.1,71.2,79.0,74.5,68.8,100,82,54,30.02,29.87,3,1,7,0.00
2013-7-8,88.7,78.6,69.7,72.7,69.8,67.7,95,76,55,30.00,29.93,5,1,7,0.00
2013-7-9,87.0,76.0,66.8,75.8,71.1,66.5,100,86,58,30.04,29.95,3,0,5,0.01
2013-7-10,84.5,76.9,70.7,79.1,73.5,70.1,99,90,74,29.99,29.77,3,0,5,0.21
2013-7-11,81.8,75.4,66.6,74.8,71.7,65.2,100,89,69,29.90,29.77,3,1,9,0.04
2013-7-12,77.2,70.7,64.4,71.9,66.9,62.9,98,88,74,30.10,29.90,2,1,5,0.16
2013-7-13,79.4,70.9,63.9,75.5,69.9,63.3,100,97,86,30.26,30.10,2,0,4,0.12
2013-7-14,89.3,79.0,72.0,77.4,74.1,72.0,100,86,62,30.31,30.19,4,1,10,0.00
2013-7-15,92.6,80.5,71.6,78.7,74.5,70.8,100,83,57,30.21,30.10,5,1,10,0.00
2013-7-16,91.8,79.3,68.3,74.3,70.2,65.7,99,77,46,30.17,30.10,5,2,11,0.00
2013-7-17,92.3,80.1,69.6,77.3,72.1,68.2,99,79,49,30.17,30.03,3,1,7,0.00
2013-7-18,95.7,81.6,71.0,79.0,74.0,70.2,100,80,47,30.03,29.92,5,1,9,0.00
2013-7-19,95.4,84.1,72.9,80.0,75.4,72.6,100,77,55,29.94,29.75,5,1,7,0.00
2013-7-20,91.8,82.8,74.1,78.8,73.6,70.9,91,75,58,29.82,29.67,5,2,12,0.00
2013-7-21,86.4,76.3,68.7,72.2,67.6,63.5,95,76,50,29.94,29.80,2,0,6,0.00
2013-7-22,83.0,73.6,67.6,76.6,71.5,65.8,100,94,77,29.94,29.79,2,0,4,0.14
2013-7-23,87.4,75.7,70.7,77.9,73.1,70.7,100,92,65,29.79,29.51,5,1,9,1.75
2013-7-24,80.0,72.6,63.9,72.9,66.9,53.8,100,83,64,29.91,29.58,6,2,13,0.00
2013-7-25,64.8,62.4,59.4,59.8,56.2,51.9,89,80,70,30.05,29.91,6,2,13,0.00
2013-7-26,79.0,68.5,61.9,67.6,62.1,58.8,96,81,58,30.02,29.97,5,2,8,0.02
2013-7-27,83.2,69.4,57.5,69.1,63.5,57.2,100,83,56,30.04,29.94,2,0,4,0.00
2013-7-28,75.5,68.7,61.2,70.2,66.5,60.6,100,93,79,29.98,29.92,1,0,6,0.20
2013-7-29,84.7,73.1,61.7,72.7,66.4,59.0,100,82,52,30.07,29.93,5,1,11,0.00
2013-7-30,78.7,66.8,56.1,65.1,59.8,55.8,100,80,52,30.14,30.07,6,1,10,0.01
2013-7-31,81.8,68.2,55.0,67.2,60.7,54.7,100,80,45,30.14,30.02,4,0,8,0.00
2013-8-1,72.9,65.5,61.0,68.5,64.6,60.2,100,97,83,30.03,29.81,1,0,3,0.80
2013-8-2,83.0,71.5,63.1,68.6,65.1,61.2,100,82,53,29.89,29.77,4,1,10,0.01
2013-8-3,77.3,66.7,60.9,70.4,64.8,60.3,100,94,73,29.89,29.82,3,1,7,0.14
2013-8-4,78.6,65.3,56.6,65.0,60.2,55.8,100,86,52,29.95,29.82,6,1,10,0.15
2013-8-5,75.6,63.2,53.1,60.5,54.2,48.8,99,76,43,30.04,29.94,6,2,14,0.00
2013-8-6,81.5,64.8,52.0,65.3,58.2,51.7,100,82,43,30.12,30.03,2,0,6,0.00
2013-8-7,77.2,67.0,57.5,68.3,63.5,56.8,100,89,69,30.14,30.05,2,0,5,0.00
2013-8-8,80.2,71.5,67.6,75.7,70.6,67.4,100,97,85,30.06,29.99,2,0,6,0.22
2013-8-9,84.1,73.6,69.5,78.1,72.6,69.4,100,97,76,30.00,29.76,4,1,6,0.39
2013-8-10,81.4,71.3,60.1,71.1,64.5,58.7,100,81,55,30.03,29.83,7,2,13,0.00
2013-8-11,78.9,66.4,53.0,64.6,58.8,52.5,100,79,48,30.11,30.01,4,0,7,0.00
2013-8-12,82.2,69.9,62.7,69.4,64.4,60.3,100,84,48,30.02,29.90,2,0,4,0.00
2013-8-13,75.7,68.0,61.8,70.9,66.6,61.2,100,96,79,29.92,29.68,1,0,3,0.35
2013-8-14,73.6,64.0,54.1,66.6,55.9,50.3,100,77,52,30.02,29.72,10,3,19,0.00
2013-8-15,77.0,61.7,48.2,58.7,53.3,47.9,100,78,43,30.13,30.03,5,1,13,0.00
2013-8-16,79.4,64.0,51.5,63.1,56.5,51.2,100,80,46,30.19,30.11,3,0,6,0.00
2013-8-17,80.4,65.9,52.8,67.4,60.0,52.5,100,84,51,30.27,30.19,2,0,5,0.00
2013-8-18,75.1,65.5,57.9,64.3,60.3,56.5,96,85,64,30.25,30.12,3,0,5,0.00
2013-8-19,78.4,67.3,57.2,66.6,61.2,56.1,98,82,57,30.12,30.00,4,1,7,0.01
2013-8-20,86.5,70.3,57.0,70.0,63.1,56.8,100,81,45,30.11,30.02,4,1,9,0.01
2013-8-21,88.6,71.9,58.6,72.6,64.2,58.3,100,80,44,30.16,30.02,3,1,7,0.00
2013-8-22,73.8,68.9,63.0,73.3,68.1,62.7,100,97,91,30.04,29.85,3,0,3,0.98
2013-8-23,79.5,69.9,59.5,68.2,62.5,55.9,100,79,49,30.09,29.85,6,2,13,0.00
2013-8-24,79.7,65.2,55.3,63.5,56.5,51.0,97,75,47,30.34,30.09,4,1,8,0.00
2013-8-25,83.8,65.4,51.7,64.7,56.5,51.4,100,78,40,30.38,30.20,4,0,6,0.01
2013-8-26,76.9,69.3,59.7,68.8,63.6,57.6,99,82,68,30.21,29.89,3,1,7,0.56
2013-8-27,84.2,73.0,67.3,74.2,69.3,66.7,100,89,62,29.89,29.78,6,1,15,0.14
2013-8-28,85.0,71.2,63.1,75.9,68.7,63.1,100,92,65,29.88,29.82,3,0,4,0.01
2013-8-29,77.8,70.0,65.4,70.6,67.7,64.5,100,93,74,30.01,29.87,1,0,2,0.00
2013-8-30,84.2,71.9,64.9,72.2,67.9,64.2,100,88,63,30.01,29.82,3,0,6,0.01
2013-8-31,83.1,75.0,69.8,76.8,72.2,69.2,99,91,75,29.84,29.76,2,0,4,0.00
2013-9-1,80.9,74.1,69.3,76.8,72.5,69.2,100,95,83,29.84,29.77,1,0,7,0.00
2013-9-2,78.7,73.6,68.4,76.4,72.5,68.2,100,97,89,29.79,29.68,1,0,4,0.02
2013-9-3,81.0,70.4,61.9,71.5,65.8,58.0,100,87,58,29.86,29.68,6,1,10,0.12
2013-9-4,81.4,66.3,55.4,62.8,58.7,54.9,100,80,48,29.98,29.85,6,1,11,0.00
2013-9-5,74.6,62.8,49.9,65.2,56.5,48.4,100,82,50,30.14,29.90,6,1,10,0.00
2013-9-6,68.1,55.9,46.8,48.5,45.1,39.9,96,71,36,30.24,30.12,4,1,8,0.00
2013-9-7,78.4,59.9,43.7,60.2,52.1,43.4,100,79,40,30.12,29.89,3,0,7,0.00
2013-9-8,79.2,65.9,53.9,67.3,57.4,47.2,97,75,44,30.07,29.80,7,2,13,0.00
2013-9-9,72.5,57.7,44.0,57.7,50.3,43.2,100,78,51,30.23,30.07,2,0,5,0.00
2013-9-10,82.5,69.0,56.6,75.5,67.2,55.6,100,94,76,30.15,30.03,3,0,4,0.11
2013-9-11,92.5,77.7,67.9,81.6,73.8,67.6,100,89,66,30.09,29.95,2,0,9,0.00
2013-9-12,86.6,73.0,66.7,77.0,70.5,66.7,100,93,68,29.97,29.67,6,0,8,2.10
2013-9-13,75.4,65.2,54.9,67.0,62.3,51.7,100,91,63,29.82,29.59,5,2,11,0.11
2013-9-14,66.4,55.6,47.3,55.5,50.3,46.4,98,83,62,30.11,29.82,6,2,10,0.00
2013-9-15,70.6,54.2,41.4,56.2,48.5,41.1,100,84,50,30.20,30.07,3,0,8,0.00
2013-9-16,70.8,58.5,50.9,60.1,54.1,46.0,100,87,56,30.23,30.01,5,1,12,0.01
2013-9-17,66.0,51.6,41.6,49.3,43.5,38.6,97,76,45,30.42,30.23,6,1,11,0.00
2013-9-18,73.1,52.4,38.7,53.4,45.6,38.4,100,82,37,30.35,30.17,2,0,5,0.00
2013-9-19,77.7,56.3,41.7,58.2,49.8,41.4,100,82,39,30.19,30.06,2,0,5,0.00
2013-9-20,78.8,59.1,45.0,65.2,54.2,44.7,100,86,50,30.08,29.99,2,0,3,0.01
2013-9-21,72.4,62.0,51.6,67.8,60.6,51.1,100,95,85,30.00,29.65,4,1,9,0.22
2013-9-22,68.1,60.5,48.2,66.8,54.3,45.1,100,82,56,29.89,29.63,8,2,14,0.80
2013-9-23,66.7,51.5,41.8,50.2,45.0,40.8,98,81,49,30.03,29.89,7,2,14,0.00
2013-9-24,73.9,51.7,37.2,55.4,46.0,36.7,100,84,44,30.04,29.86,5,1,11,0.00
2013-9-25,72.3,55.0,43.5,55.7,48.9,42.7,100,83,46,29.95,29.86,4,1,9,0.00
2013-9-26,69.0,56.6,47.9,59.6,53.4,47.2,100,90,63,30.10,29.93,4,0,5,0.00
2013-9-27,63.5,54.6,45.8,57.5,52.1,45.5,100,92,73,30.26,30.10,2,0,4,0.00
2013-9-28,74.1,57.4,46.2,60.2,52.7,45.9,100,86,55,30.32,30.24,3,0,8,0.00
2013-9-29,69.6,55.3,45.1,61.1,52.3,44.8,100,91,69,30.24,30.08,2,0,3,0.00
2013-9-30,72.8,55.0,43.2,59.8,50.9,42.8,100,88,56,30.08,29.96,2,0,5,0.00
2013-10-1,80.6,59.6,44.8,63.1,54.2,44.6,100,85,46,29.99,29.88,5,1,10,0.00
2013-10-2,81.9,63.4,49.0,66.8,58.1,48.8,100,85,56,29.99,29.88,7,1,17,0.00
2013-10-3,76.5,61.3,48.5,62.7,56.1,48.2,100,85,48,30.11,29.99,4,0,7,0.01
2013-10-4,82.5,65.2,54.7,73.0,63.2,54.4,100,94,65,30.06,29.95,3,0,7,0.12
2013-10-5,76.5,65.0,60.4,69.0,63.1,60.1,100,94,72,30.08,30.01,2,0,3,0.00
2013-10-6,64.2,63.1,62.2,63.9,63.0,62.2,100,100,99,30.10,30.03,1,0,5,0.02
2013-10-7,71.3,65.1,56.5,70.0,64.6,53.6,100,98,90,30.03,29.75,6,1,14,0.47
2013-10-8,66.1,53.9,45.3,53.5,48.1,45.0,100,83,49,30.33,29.94,6,1,13,0.01
2013-10-9,61.4,51.4,44.6,52.1,47.0,41.8,98,86,61,30.41,30.30,2,0,8,0.00
2013-10-10,63.1,54.5,48.0,58.2,51.5,46.3,95,90,82,30.31,30.09,3,1,9,0.00
2013-10-11,66.4,60.7,55.3,62.1,57.5,52.8,93,89,82,30.09,30.02,3,1,8,0.00
2013-10-12,72.6,60.8,54.1,59.1,52.4,45.7,93,75,43,30.29,30.07,2,1,6,0.00
2013-10-13,62.9,54.7,48.5,52.9,49.6,46.9,97,84,65,30.38,30.28,6,2,12,0.00
2013-10-14,67.4,53.2,44.0,55.8,48.6,43.6,100,86,59,30.36,30.24,3,0,4,0.00
2013-10-15,71.6,54.0,44.4,58.9,48.9,44.1,100,85,49,30.25,30.11,1,0,4,0.00
2013-10-16,63.4,54.9,45.8,58.0,53.0,45.0,100,94,79,30.11,29.91,1,0,3,0.00
2013-10-17,76.0,63.5,57.6,63.3,60.5,57.3,100,91,61,29.90,29.67,2,0,6,0.02
2013-10-18,67.3,58.2,44.3,62.4,49.8,42.0,100,75,45,29.96,29.65,10,3,21,0.01
2013-10-19,62.1,50.2,37.9,54.3,46.1,37.6,100,87,60,29.98,29.73,2,0,5,0.03
2013-10-20,62.1,51.4,38.8,54.3,43.5,37.8,98,77,45,30.05,29.73,8,3,12,0.00
2013-10-21,67.4,48.7,34.5,47.3,40.7,34.1,100,78,36,30.14,29.98,4,1,7,0.00
2013-10-22,63.8,49.1,38.2,54.3,45.5,37.8,100,89,64,29.98,29.73,5,1,8,0.01
2013-10-23,52.7,43.3,34.4,43.3,38.2,33.9,100,83,58,29.80,29.61,4,1,15,0.00
2013-10-24,54.0,43.7,36.5,37.6,33.3,28.9,93,69,43,29.98,29.73,8,3,18,0.00
2013-10-25,52.2,42.5,34.4,35.7,32.9,30.4,89,70,51,30.21,29.98,9,3,18,0.00
2013-10-26,55.2,41.6,27.5,38.1,31.8,26.8,100,72,42,30.20,29.89,7,2,15,0.00
2013-10-27,57.1,45.9,34.0,41.2,35.6,32.1,93,70,43,30.10,29.83,10,2,19,0.01
2013-10-28,61.2,43.6,29.5,39.5,34.3,29.0,100,74,41,30.32,30.10,7,2,13,0.00
2013-10-29,51.3,41.7,33.8,36.0,32.9,29.6,89,72,52,30.42,30.32,3,0,7,0.00
2013-10-30,55.8,44.5,33.8,49.9,41.1,31.5,97,88,74,30.34,30.18,2,0,4,0.00
2013-10-31,61.4,51.4,36.5,59.4,50.7,36.0,100,97,92,30.23,29.80,3,0,6,0.05
2013-11-1,68.2,61.0,49.5,62.7,57.3,48.4,99,89,62,29.79,29.52,9,2,11,0.18
2013-11-2,66.4,52.4,43.3,51.9,46.3,41.6,100,82,50,29.77,29.59,6,1,8,0.00
2013-11-3,47.3,41.7,33.2,43.2,34.0,20.0,98,75,58,30.43,29.77,8,3,15,0.00
2013-11-4,45.0,34.6,26.9,27.8,22.0,17.0,87,62,33,30.66,30.43,5,1,10,0.00
2013-11-5,51.3,40.9,30.2,40.4,35.2,26.5,93,81,64,30.66,30.48,3,0,7,0.00
2013-11-6,59.0,47.8,36.0,49.6,43.7,35.5,100,87,65,30.49,30.06,5,1,7,0.00
2013-11-7,60.6,51.9,38.4,57.8,48.9,30.6,100,90,64,30.06,29.72,8,3,17,0.20
2013-11-8,47.7,41.0,34.8,33.0,30.1,26.8,90,66,50,30.18,29.89,11,5,23,0.00
2013-11-9,47.3,41.1,32.2,35.7,30.1,27.8,88,66,48,30.27,29.99,7,2,9,0.00
2013-11-10,59.3,46.9,39.5,39.8,35.7,29.3,85,66,41,30.01,29.78,11,5,18,0.01
2013-11-11,49.6,46.1,39.8,35.0,31.0,28.3,64,56,48,30.17,29.94,10,5,23,0.00
2013-11-12,49.1,36.5,27.7,38.1,28.1,18.8,96,73,57,30.26,29.91,7,3,13,0.19
2013-11-13,37.1,30.4,22.4,22.5,17.9,11.5,82,61,35,30.35,30.25,11,3,14,0.00
2013-11-14,50.4,39.2,29.8,23.4,21.5,17.8,75,51,31,30.25,30.13,7,3,12,0.00
2013-11-15,56.5,37.2,25.8,32.1,25.9,22.6,92,69,27,30.24,30.14,5,1,7,0.00
2013-11-16,59.8,44.4,29.2,45.2,38.8,27.2,99,83,49,30.32,30.22,4,1,6,0.01
2013-11-17,58.6,51.8,39.9,58.6,51.8,39.4,100,100,98,30.27,29.78,2,0,4,0.02
2013-11-18,62.8,56.7,47.6,58.7,43.9,28.9,100,66,36,29.78,29.58,11,4,15,0.22
2013-11-19,47.5,41.0,31.4,31.4,27.2,22.6,70,58,50,30.32,29.75,12,7,22,0.00
2013-11-20,43.6,32.6,24.2,22.7,19.1,13.3,85,59,31,30.61,30.32,12,3,19,0.00
2013-11-21,47.5,35.7,21.1,37.7,29.1,19.2,94,78,56,30.62,30.39,3,0,5,0.00
2013-11-22,51.3,47.0,41.7,49.5,45.4,37.6,100,94,85,30.38,29.88,5,1,9,0.19
2013-11-23,51.5,39.9,27.7,48.7,27.7,15.0,93,62,43,30.01,29.87,13,7,22,0.01
2013-11-24,29.1,24.4,21.4,17.9,7.6,-0.3,69,49,29,30.33,29.97,15,10,29,0.00
2013-11-25,33.4,27.2,19.6,17.5,14.1,9.1,74,58,44,30.46,30.31,9,4,14,0.00
2013-11-26,44.0,35.1,31.6,44.0,25.8,16.8,100,71,47,30.33,29.82,6,2,9,0.51
2013-11-27,59.9,45.7,32.5,59.9,44.5,23.8,100,96,69,29.82,29.30,13,5,22,3.32
2013-11-28,32.4,28.8,24.3,23.8,16.7,11.4,79,61,45,30.46,29.68,13,7,24,0.00
2013-11-29,36.1,29.0,24.0,24.2,21.6,17.4,93,74,59,30.72,30.45,5,1,9,0.00
2013-11-30,33.1,26.8,18.8,28.5,19.3,12.8,87,74,55,30.76,30.38,3,1,6,0.00
2013-12-1,48.3,37.8,31.2,38.1,32.3,27.8,93,81,62,30.38,30.00,4,0,6,0.00
2013-12-2,44.8,35.4,29.1,37.9,32.8,28.4,98,91,72,30.00,29.88,1,0,3,0.00
2013-12-3,50.3,35.3,26.6,38.9,32.0,26.1,100,89,62,30.00,29.86,3,0,8,0.00
2013-12-4,50.9,38.7,28.2,41.5,34.7,27.7,100,86,63,30.15,30.00,3,0,6,0.00
2013-12-5,53.3,49.7,43.4,53.3,49.5,41.8,100,99,93,30.13,29.93,2,0,4,0.03
2013-12-6,54.2,44.5,34.9,54.2,43.8,33.6,100,97,92,30.14,29.86,6,2,13,0.68
2013-12-7,39.7,34.9,30.3,34.5,29.8,20.6,95,82,61,30.50,30.07,7,2,14,0.04
2013-12-8,32.2,29.7,24.3,26.5,21.6,17.0,86,72,63,30.59,30.40,3,1,5,0.00
2013-12-9,38.4,34.0,29.5,37.3,32.6,26.7,97,95,87,30.39,29.94,5,2,8,0.04
2013-12-10,35.2,31.8,26.1,33.2,29.1,19.9,96,90,77,30.09,29.84,6,2,10,0.14
2013-12-11,32.8,27.6,23.5,21.6,18.9,16.8,78,70,60,30.29,30.09,8,4,10,0.00
2013-12-12,26.5,22.3,14.9,17.4,11.0,7.8,84,62,47,30.33,30.14,8,4,14,0.00
2013-12-13,32.6,26.5,19.3,20.8,14.7,8.4,76,61,54,30.33,30.10,11,4,16,0.00
2013-12-14,28.3,22.0,16.9,26.9,17.9,14.0,95,84,67,30.51,29.85,6,2,11,0.16
2013-12-15,35.2,31.5,26.7,32.6,29.4,24.1,97,92,83,29.84,29.50,10,2,10,0.34
2013-12-16,29.5,23.1,9.7,24.9,15.4,7.8,92,73,53,30.23,29.80,11,4,15,0.00
2013-12-17,27.5,20.0,7.9,25.0,17.8,5.8,96,91,85,30.23,29.94,4,1,8,0.18
2013-12-18,34.8,27.3,19.9,25.1,20.8,16.3,87,77,64,30.15,29.92,10,3,15,0.00
2013-12-19,43.5,33.5,21.2,31.5,25.4,17.3,89,73,53,30.17,30.01,7,2,13,0.00
2013-12-20,47.8,40.1,33.4,35.6,32.9,29.7,88,76,59,30.10,29.96,5,1,8,0.00
2013-12-21,57.4,46.9,38.4,49.5,42.5,34.4,97,85,70,30.00,29.89,5,1,6,0.00
2013-12-22,66.2,58.3,46.2,62.3,55.3,43.8,99,90,80,29.95,29.79,8,2,13,0.00
2013-12-23,57.8,51.6,39.4,56.8,50.3,36.1,99,95,88,30.11,29.87,9,2,12,0.53
2013-12-24,39.2,33.3,24.1,35.7,26.6,11.8,92,76,59,30.30,30.07,9,3,21,0.03
2013-12-25,27.4,23.0,17.1,17.8,11.3,8.1,70,61,46,30.52,30.30,11,3,18,0.00
2013-12-26,33.8,30.2,27.0,27.4,24.0,17.4,85,77,66,30.43,30.14,6,2,9,0.00
2013-12-27,37.6,30.8,23.3,26.3,23.0,19.7,87,73,54,30.34,30.24,7,2,12,0.00
2013-12-28,50.0,38.7,28.0,30.5,27.2,24.3,86,65,44,30.27,30.05,8,2,12,0.00
2013-12-29,44.1,39.5,35.2,42.7,35.5,29.8,97,86,61,30.06,29.42,6,1,10,1.00
2013-12-30,40.7,33.1,19.0,38.1,26.4,13.0,97,77,56,30.18,29.66,9,3,19,0.00
2013-12-31,28.8,23.0,17.2,23.8,14.7,9.9,87,71,53,30.26,30.05,10,3,16,0.00
2014-1-1,31.6,26.0,17.9,21.8,15.2,10.2,82,64,56,30.41,30.25,8,2,14,0.00
2014-1-2,30.2,23.4,14.3,22.3,19.2,11.5,90,84,65,30.26,29.69,7,3,16,0.16